{"data":{"norad_id":68868,"epoch":"2026-05-24T23:48:55.576224Z","epoch_age_seconds":68922,"freshness":"FRESH","line1":"1 68868U 26095E   26144.99230991  .00028014  00000+0  72759-3 0  9994","line2":"2 68868  51.8849 354.3395 0001431 219.6202 140.4681 15.38744475  4169","mean_motion":15.38744475,"eccentricity":0.0001431,"inclination_deg":51.8849,"raan_deg":354.3395,"arg_perigee_deg":219.6202,"mean_anomaly_deg":140.4681,"bstar":0.00072759,"rev_number":416,"period_min":93.582789306197,"perigee_km":448.84385501668,"apogee_km":450.7980165779,"semimajor_km":6827.9579357973,"source":"CELESTRAK","updated_at":"2026-05-25T13:38:08.646108Z"}}